Location: Krakow
(50.0830°N, 19.9170°E)
Time: 17:53:01
(UTC+01:00)

Transit 2A - Pass Details

Date: 12 February 2023
Orbit: 591 x 964 km, 66.7° (Epoch: 21 March)

Event Time Altitude Azimuth Distance (km) Brightness Sun altitude
Rises 20:53:35 0° 321° (NW) 3,424 10.2 -38.3°
Reaches altitude 10° 20:56:25 10° 334° (NNW) 2,544 9.2 -38.7°
Enters shadow 20:58:31 19° 351° (N) 2,020 8.4 -38.9°
Maximum altitude 21:01:22 26° 30° (NNE) 1,721 - -39.3°
Drops below altitude 10° 21:06:35 10° 86° (E) 2,679 - -40.1°
Sets 21:09:38 0° 99° (E) 3,642 - -40.5°
